星链-5356 (STARLINK-5356 )

导读

STARLINK-5356是美国SpaceX公司星链星座的组成部分,于2023年5月4日发射升空。星链项目旨在构建全球卫星互联网星座,为全球提供低延迟高速互联网服务。该卫星继承星链系列技术特点,服役期间参与完成全球网络覆盖补充,截至2026年已在轨运行近三年,支撑星座服务性能提升。

Basic Information
目录编号:
56418
目录名称:
STARLINK-5356
国际标识:
2023-061AW
轨道中心:
EARTH
卫星名称:
星链-5356
卫星全名:
星链-5356 (STARLINK-5356 )
卫星状态:
在轨 (已飞行1227 天)
发射日期:
2023-05-04 UTC
国别 :
美国 (US)
星等 :
--
This satellite is enrolled in the Space Conjunction Data Service (SCDS) and the current flight risk assessment level is: High Risk
Orbit Information
数据来源 国际轨道数据 AOE轨道数据
星历时间 2026-09-12T14:01:52+0800
7小时前
查看轨道信息
2026-09-10T23:00:00+0800
1天前
查看轨道信息
半长轴 6861.219km 6861.199km
偏心率 0.0001109 0.0001872
轨道倾角 43.004° 43.004°
近地点辐角 269.468° 290.549°
升交点赤经 205.798° 214.987°
平近点角 90.604° 115.560°
近地点 482.321km 481.777km
远地点 483.843km 484.347km
周期 94.267分钟 94.267分钟
每日圈数 15.275693 15.27576
Detailed Information
固有亮度:
5
最大亮度:
2.5
卫星平台:
Starlink v1.5
覆盖范围:
全球
运营商:
太空探索技术公司
运营商所在国:
美国
制造商(研发单位):
太空探索技术公司
制造商所在国:
美国
使用方式:
暂无
Satellite Introduction
星链(Starlink)计划是由太空探索技术公司(SpaceX)提出的一个巨型低轨卫星互联网星座项目,计划在2019年至2024年间在太空搭建由约1.2万颗卫星组成的“星链”网络,其中1584颗将部署在地球上空550千米处的近地轨道,并从2020年开始工作。该卫星仍在工作。
2D Orbit Map
3D Orbit Map
Orbit Altitude Analysis Chart
Orbit Inclination Analysis Chart
Orbit Comprehensive Analysis Chart
View Comprehensive Chart
Miss Distance Evolution Trend with All Objects
Collision Probability Evolution Trend with All Objects